Regional Weather Roundup
Issued by NWS

Home | Current Version | Previous Version | Graphics & Text | Print | Product List | Glossary Off
Versions: 1 2 3 4 5 6 7 8 9 10 11 12 13 14 15 16 17 18 19 20 21 22 23 24 25 26 27 28 29 30 31 32 33 34 35 36 37 38 39 40 41 42 43 44 45 46 47 48 49 50

000
ASUS43 KMKX 251320
RWRWI

WISCONSIN REGIONAL WEATHER ROUNDUP
NATIONAL WEATHER SERVICE MILWAUKEE/SULLIVAN WI
700 AM CST SUN JAN 25 2015

NOTE: "FAIR" INDICATES FEW OR NO CLOUDS BELOW 12,000 FEET WITH NO
SIGNIFICANT WEATHER AND/OR OBSTRUCTIONS TO VISIBILITY.

WIZ001-002-006>008-014>016-023>028-251400-
NORTHWEST WISCONSIN

CITY           SKY/WX    TMP DP  RH WIND       PRES   REMARKS
SUPERIOR ARPT  CLOUDY    20  16  84 NE9G16    30.00S WCI  10
ASHLAND        FLURRIES  19  13  77 CALM      29.99R
HAYWARD        CLOUDY    16   8  71 NE6       29.94R WCI   7
SIREN          CLOUDY    19  11  70 NE7       29.98R WCI  10
CUMBERLAND     PTCLDY    14   9  79 NE7       29.93R WCI   4
RICE LAKE      PTCLDY    15   9  77 N8        29.95R WCI   3
CHETEK         CLOUDY    16   9  74 N10G16    29.93R WCI   4
LADYSMITH      CLOUDY    15   9  78 NE8       29.94R WCI   4
EAU CLAIRE     CLOUDY    21  12  68 NE10      29.90R WCI  10
MENOMONIE      CLOUDY    21  14  74 N10       29.91R WCI  10
NEW RICHMOND   CLOUDY    18  10  71 NE12      29.94R WCI   6
OSCEOLA        MOCLDY    19  12  72 NE12      29.97R WCI   7
$$

WIZ003>005-009-010-017-018-251400-
NORTH CENTRAL WISCONSIN

CITY           SKY/WX    TMP DP  RH WIND       PRES   REMARKS
MANITOWISH WTR FLURRIES  12   8  81 NE9       29.91R WCI   0
ARBOR VITAE    LGT SNOW  17  11  79 CALM      29.90R
WOODRUFF       LGT SNOW  17  11  79 CALM      29.90R
RHINELANDER    CLOUDY    14   7  73 NE8       29.89R WCI   3
EAGLE RIVER    CLOUDY    13   5  72 E10       29.90R WCI   0
LAND O LAKES   FLURRIES  12   7  79 E5        29.92R WCI   4
PHILLIPS       CLOUDY    13   8  79 NE10G21   29.90R WCI   0
TOMAHAWK       CLOUDY    14   8  76 NE7       29.90R WCI   4
MEDFORD        MOCLDY    14   8  77 NE8       29.87R WCI   2
MERRILL        CLOUDY    16   9  74 E8        29.89R WCI   5
$$

WIZ029-030-035-036-043>047-251400-
CENTRAL WISCONSIN

CITY           SKY/WX    TMP DP  RH WIND       PRES   REMARKS
WAUSAU         CLOUDY    16   8  71 NE10      29.88R WCI   4
MOSINEE        CLOUDY    18  12  79 NE14      29.89R WCI   4
MARSHFIELD     CLOUDY    20  10  65 E14       29.87R WCI   7
STEVENS POINT  CLOUDY    18  10  73 NE9       29.89R WCI   6
WAUPACA        CLOUDY    22  13  67 NE6G16    29.91R WCI  15
WAUTOMA        CLOUDY    21  14  74 NE12      29.89R WCI   9
WISC RAPIDS    CLOUDY    20  10  65 E12       29.90R WCI   8
CAMP DOUGLAS   CLOUDY    22  19  89 NE9       29.87R WCI  11
$$

WIZ011>013-019>022-031-037>040-048>050-251400-
NORTHEAST WISCONSIN

CITY           SKY/WX    TMP DP  RH WIND       PRES   REMARKS
ANTIGO         CLOUDY    14   9  81 NE14      29.88R WCI  -1
SHAWANO        CLOUDY    20  11  68 NE17G24   29.94R WCI   6
OCONTO         CLOUDY    17  10  76 MISG      29.96R
STURGEON BAY   CLOUDY    16   7  67 N13       29.96S WCI   2
GREEN BAY      CLOUDY    18  10  71 NE21G31   29.93R WCI   1
MANITOWOC      CLOUDY    23  16  74 NE15G24   29.90R WCI  10
APPLETON       CLOUDY    19  10  68 NE16G26   29.90R WCI   5
CLINTONVILLE   CLOUDY    19  12  73 NE12G20   29.92R WCI   7
OSHKOSH        CLOUDY    20  13  74 NE18      29.88R WCI   5
$$

WIZ032>034-041-042-053>061-251400-
SOUTHWEST WISCONSIN

CITY           SKY/WX    TMP DP  RH WIND       PRES   REMARKS
LA CROSSE      CLOUDY    28  21  75 E14       29.86R WCI  17
SPARTA         CLOUDY    24  16  72 NE10G16   29.88R WCI  13
VIROQUA        CLOUDY    24  20  86 NE18      29.81R WCI   9
BOSCOBEL       LGT SNOW  26  20  77 NE9G21    29.82R WCI  17
PRAIRIE DU CHI LGT SNOW  29  24  80 NE8G21    29.80R WCI  21
PLATTEVILLE    CLOUDY    27  25  90 NE17G26   29.75R WCI  15
$$

WIZ056-057-062-063-064-067-068-251400-
SOUTH CENTRAL WISCONSIN

CITY           SKY/WX    TMP DP  RH WIND       PRES   REMARKS
REEDSBURG      MIX PCPN  22  17  83 NE7G17    29.84R WCI  13
BARABOO/DELLS  CLOUDY    21  17  83 NE12G21   29.84R FOG     WCI   9
LONE ROCK      LGT SNOW  25  19  78 E12       29.83R WCI  14
MINERAL POINT  LGT SNOW  28  25  86 NE17G25   29.75R WCI  16
MADISON        LGT SNOW  24  19  81 NE15      29.81R WCI  11
MIDDLETON      CLOUDY    26  21  82 NE14      29.81R WCI  14
WATERTOWN      FLURRIES  25  22  88 NE12      29.81R WCI  14
MONROE         FLURRIES  28  27  93 NE18G26   29.75R WCI  16
JANESVILLE     FLURRIES  28  25  86 NE13G22   29.76R WCI  18
$$

WIZ051-052-058>065-066-070>072-251400-
SOUTHEAST WISCONSIN

CITY           SKY/WX    TMP DP  RH WIND       PRES   REMARKS
MILWAUKEE      LGT SNOW  27  22  81 NE20G29   29.82R WCI  13
WAUKESHA       LGT SNOW  25  21  86 NE17G29   29.82R WCI  11
MILWAUKEE/TIMM FLURRIES  27  19  74 NE14G26   29.83R WCI  15
RACINE         FLURRIES  28  22  78 NE22G31   29.82R WCI  14
BURLINGTON     FLURRIES  26  23  87 NE15G22   29.79R WCI  14
KENOSHA        LGT SNOW  28  24  85 NE20G25   29.79R FOG     WCI  15
FOND DU LAC    CLOUDY    22  15  75 NE16G25   29.87R WCI   8
SHEBOYGAN      CLOUDY    24  18  77 NE20G30   29.86R WCI  10
WEST BEND      CLOUDY    27  19  74 NE16G29   29.83R WCI  14
JUNEAU         CLOUDY    23  18  81 N13G20    29.84R WCI  11
$$

LSZ147-162-251400-
LAKE SUPERIOR

STATION/POSITION TIME  TEMP    WIND        PRES    WAVE
                       AIR SEA DIR/SP/G            HT/PER
                 (UTC) (F)     (DEG/KT/KT) (MB)    (FT/S)
DEVILS ISLAND    1300   20      60/ 18/ 21 1017.8R
PORT WING        1200   22      70/  8/ 13 1015.6
SAXON HARBOR     1240   19      CALM  / 10 1015.9R
$$

LMZ867-665-643>646-251400-
LAKE MICHIGAN

STATION/POSITION TIME  TEMP    WIND        PRES    WAVE
                       AIR SEA DIR/SP/G            HT/PER
                 (UTC) (F)     (DEG/KT/KT) (MB)    (FT/S)
NORTHPORT PIER   1205   15      20/ 13/ 22 1014.9R
SISTER BAY       1243   14     360/ 15/ 19   N/A
KEWAUNEE LAKESHO 1300   22      50/ 23/ 27 1012.4R
SHEBOYGAN LAKESH 1300   25      40/ 28/ 32 1012.5R
PORT WASHINGTON  1228   29      40/ 23/ 26 1011.2R
MILWAUKEE LAKESH 1300   28      40/ 26/ 30   N/A
KENOSHA   LAKESH 1300   29      30/ 27/ 29 1008.8R
$$

TC  - TEMPERATURE IN CELSIUS
VSB - VISIBILITY IN STATUTE MILES
WCI - WIND CHILL INDEX
HX  - HEAT INDEX




USA.gov is the U.S. government's official web portal to all federal, state and local government web resources and services.